Weather History for MMCZ - June, 2013

Change the Weather History Date:

Saturday, June 8, 2013

  Actual Average Record
Temperature  
Mean Temperature 80 °F -  
Max Temperature 84 °F 88 °F 93 °F (1998)
Min Temperature 75 °F 76 °F 73 °F (1999)
Cooling Degree Days 14    
Growing Degree Days 30 (Base 50)    
Moisture  
Dew Point 75 °F    
Average Humidity 88    
Maximum Humidity 100    
Minimum Humidity 74    
Precipitation  
Precipitation 0.00 in - - ()
Sea Level Pressure  
Sea Level Pressure 29.93 in    
Wind  
Wind Speed 9 mph ()    
Max Wind Speed 17 mph    
Max Gust Speed 23 mph    
Visibility 7.0 miles    
Events      
Averages and records for this station are not official NWS values.
T = Trace of Precipitation, MM = Missing Value Source: Averaged Metar Reports

Daily Weather History Graph

Daily Weather History Graph

Search for Another Location

Airport or City:

Trip Planner

Search our weather history database for the weather conditions in past years. The results will help you decide how hot, cold, wet, or windy it might be!

Date:

Astronomy

Jun. 08, 2013 Rise Set
Actual Time 6:06 AM CDT 7:27 PM CDT
Civil Twilight 5:41 AM CDT 7:51 PM CDT
Nautical Twilight 5:12 AM CDT 8:21 PM CDT
Astronomical Twilight 4:42 AM CDT 8:51 PM CDT
Moon 6:07 AM CDT (6/8) 7:35 PM CDT (6/8)
Length of Visible Light 14h 09m
Length of Day
13h 20m
New Moon, 0% of the Moon is Illuminated
Jun 8
New Moon
Jun 16
First Quarter
Jun 23
Full
Jun 29
Last Quarter
Jul 8
New

Hourly Weather History & Observations

Time (CDT) Temp. Heat Index Dew Point Humidity Pressure Visibility Wind Dir Wind Speed Gust Speed Precip Events Conditions
12:40 AM 77.0 °F - 75.2 °F 94% 29.89 in 7.0 mi SE 6.9 mph - N/A   Mostly Cloudy
1:45 AM 77.0 °F - 75.2 °F 94% 29.90 in 7.0 mi SE 6.9 mph - N/A   Mostly Cloudy
2:42 AM 77.0 °F - 75.2 °F 94% 29.89 in 7.0 mi SE 6.9 mph - N/A   Scattered Clouds
3:59 AM 77.0 °F - 75.2 °F 94% 29.92 in 7.0 mi SE 8.1 mph - N/A   Scattered Clouds
4:49 AM 77.0 °F - 75.2 °F 94% 29.89 in 7.0 mi SE 6.9 mph - N/A   Scattered Clouds
5:40 AM 77.0 °F - 75.2 °F 94% 29.90 in 7.0 mi SE 6.9 mph - N/A   Mostly Cloudy
6:52 AM 77.0 °F - 75.2 °F 94% 29.91 in 7.0 mi SE 9.2 mph - N/A   Mostly Cloudy
7:54 AM 78.8 °F - 75.2 °F 89% 29.94 in 7.0 mi SE 10.4 mph - N/A   Mostly Cloudy
8:46 AM 78.8 °F - 75.2 °F 89% 29.94 in 7.0 mi SE 15.0 mph - N/A   Mostly Cloudy
9:47 AM 80.6 °F 86.2 °F 75.2 °F 84% 29.99 in 7.0 mi SE 9.2 mph 23.0 mph N/A   Overcast
10:41 AM 80.6 °F 86.2 °F 75.2 °F 84% 29.96 in 7.0 mi SE 11.5 mph - N/A   Overcast
11:43 AM 82.4 °F 89.5 °F 75.2 °F 79% 29.95 in 7.0 mi SE 15.0 mph - N/A   Mostly Cloudy
12:42 PM 84.2 °F 92.3 °F 75.2 °F 74% 29.93 in 7.0 mi SE 17.3 mph - N/A   Mostly Cloudy
1:40 PM 84.2 °F 92.3 °F 75.2 °F 74% 29.93 in 7.0 mi SE 17.3 mph - N/A   Mostly Cloudy
2:41 PM 82.4 °F 89.5 °F 75.2 °F 79% 29.91 in 7.0 mi SE 17.3 mph - N/A   Mostly Cloudy
3:42 PM 82.4 °F 89.5 °F 75.2 °F 79% 29.91 in 7.0 mi SE 17.3 mph - N/A   Mostly Cloudy
4:48 PM 80.6 °F 86.2 °F 75.2 °F 84% 29.89 in 7.0 mi SE 16.1 mph - N/A   Mostly Cloudy
5:46 PM 80.6 °F 86.2 °F 75.2 °F 84% 29.90 in 7.0 mi SE 11.5 mph - N/A   Mostly Cloudy
6:47 PM 78.8 °F - 75.2 °F 89% 29.91 in 7.0 mi SE 6.9 mph - N/A   Mostly Cloudy
7:42 PM 77.0 °F - 75.2 °F 94% 29.94 in 7.0 mi SE 9.2 mph - N/A   Mostly Cloudy
8:43 PM 77.0 °F - 75.2 °F 94% 29.96 in 7.0 mi ESE 4.6 mph - N/A   Scattered Clouds
9:46 PM 75.2 °F - 75.2 °F 100% 29.99 in 7.0 mi ESE 4.6 mph - N/A   Mostly Cloudy
10:47 PM 77.0 °F - 75.2 °F 94% 29.98 in 7.0 mi East 8.1 mph - N/A   Scattered Clouds
11:47 PM 77.0 °F - 75.2 °F 94% 29.99 in 7.0 mi ESE 9.2 mph - N/A   Scattered Clouds